Location: Unspecified
(0.0000°N, 0.0000°E)
Time: 19:57:43
(UTC+00:00)

deb OV3-4 - Pass Details

Date: 19 April 2026
Orbit: 581 x 4210 km, 40.6° (Epoch: 13 May)

Event Time Altitude Azimuth Distance (km) Brightness Sun altitude
Exits shadow 03:54:06 - 178° (S) 3,734 ? -30.6°
Reaches altitude 10° 03:58:08 10° 151° (SSE) 3,471 ? -29.6°
Maximum altitude 04:01:35 12° 128° (SE) 3,734 ? -28.8°
Drops below altitude 10° 04:05:50 10° 106° (ESE) 4,489 ? -27.8°
Sets 04:14:18 0° 82° (E) 6,516 ? -25.7°
